Regional Weather Roundup
Issued by NWS Sioux Falls, SD

Home | Current Version | Previous Version | Text Only | Print | Product List | Glossary On
Versions: 1 2 3 4 5 6 7 8 9 10 11 12 13 14 15 16 17 18 19 20 21 22 23 24 25 26 27 28 29 30 31 32 33 34 35 36 37 38 39 40 41 42 43 44 45 46 47 48 49 50
000
ASUS43 KFSD 252110
RWRFSD

WEATHER ROUNDUP FOR SE SOUTH DAKOTA/SW MINNESOTA/NW IOWA
NATIONAL WEATHER SERVICE SIOUX FALLS SD
400 PM CDT MON JUL 25 2016

NOTE: "FAIR" INDICATES FEW OR NO CLOUDS BELOW 12,000 FEET WITH NO
SIGNIFICANT WEATHER AND OR OBSTRUCTIONS TO VISIBILITY.


SDZ038>040-050-052>070-252200-
SOUTHEAST SOUTH DAKOTA

CITY           SKY/WX    TMP DP  RH WIND       PRES   REMARKS
BROOKINGS      SUNNY     84  60  44 S10       30.08F
CHAMBERLAIN    SUNNY     92  54  27 S20       30.03F
HURON          SUNNY     90  56  31 S16G25    30.02F
MADISON        FAIR      81  64  57 S14       30.09F
MITCHELL       SUNNY     89  57  33 S13G25    30.04F
SIOUX FALLS    SUNNY     85  61  44 SW7       30.08F
WINNER         FAIR      96  44  16 S18       30.04F
YANKTON        SUNNY     88  57  35 S13       30.05F
$$

MNZ071-072-080-081-089-090-097-098-252200-
SOUTHWEST MINNESOTA

CITY           SKY/WX    TMP DP  RH WIND       PRES   REMARKS
FAIRMONT       SUNNY     84  63  48 NW8       30.07F
JACKSON        SUNNY     84  59  42 CALM      30.10F
LUVERNE        SUNNY     82  59  44 S6        30.10F
MARSHALL       SUNNY     85  63  47 W12       30.06
MONTEVIDEO     SUNNY     88  64  45 W10       30.06F
REDWOOD FALLS  SUNNY     85  64  49 SW8       30.06F
TRACY          SUNNY     86  66  51 W5        30.08F
WINDOM         SUNNY     84  63  48 SW5       30.09F
WORTHINGTON    SUNNY     83  63  50 MISG      30.10F
$$

IAZ001>003-012>014-020>022-031-032-NEZ013-014-SDZ071-252200-
NORTHWEST IOWA

CITY           SKY/WX    TMP DP  RH WIND       PRES   REMARKS
CHEROKEE       SUNNY     86  60  41 SW5       30.09F
DENISON        SUNNY     84  63  48 E6        30.07F
ESTHERVILLE    SUNNY     83  66  56 NW7       30.09S
LE MARS        SUNNY     86  63  45 S7G14     30.09F
SHELDON        SUNNY     84  63  48 SW7       30.08F
SIOUX CITY     SUNNY     89  61  38 SE7       30.07F
SPENCER        SUNNY     84  59  42 SW3       30.09F
STORM LAKE     SUNNY     84  59  42 CALM      30.10F
$$

ABBREVIATIONS USED IN REMARKS
   TC - TEMPERATURE IN CELSIUS
  WCI - WIND CHILL INDEX
   HX - HEAT INDEX
  VSB - VISIBILITY





USA.gov is the U.S. government's official web portal to all federal, state and local government web resources and services.